Date String (YYYY-MM-DD hh:mm:ss) UTC,Instrument flags,absolute air pressure of the measurement (hPa),sample flow rate (lpm),inlet stack bypass flow (lpm),air temperature of the measurement (°C),ambient temperature measured by the external sensor (°C),aerosol sample conditioner tube jacket temperature (°C),OPC LED temperature (°C),internal box temperature (°C),relative humidity of the measurement (%),span deviation,mass concentration of particles derived from Lorenz-Mie calculation of OPC scattering (μg/m³),mass concentration of particles derived from Lorenz-Mie calculation of OPC scattering (μg/m³),mass concentration of particles derived from Lorenz-Mie calculation of OPC scattering (μg/m³)
DateTimeUTC,F1_M11,P_M11,Q1_M11,Q2_M11,T1_M11,T2_M11,T3_M11,T4_M11,T5_M11,U1_M11,ZSPAN_M11,X0_M11,X2_M11,X1_M11
2023-10-31 23:00:00,SystemResetWarning,0835.1,5.00,000.00,025.7,024.7,000.0,033.9,027.0,10.4,0002.8,0011.98,0007.29,0006.90
2023-10-31 23:01:00,SystemResetWarning,0835.1,5.02,000.00,025.7,024.7,000.0,033.9,027.0,10.6,0003.2,0012.15,0007.33,0006.92
2023-10-31 23:02:00,SystemResetWarning,0835.1,4.99,000.00,025.7,024.7,000.0,033.9,027.1,10.7,0004.4,0012.05,0007.35,0006.94
2023-10-31 23:03:00,SystemResetWarning,0835.1,4.99,000.00,025.7,024.7,000.0,033.9,027.1,10.6,0004.4,0011.93,0007.35,0006.96
2023-10-31 23:04:00,SystemResetWarning,0835.1,5.02,000.00,025.7,024.8,000.0,033.9,027.1,10.6,0004.4,0012.04,0007.35,0006.98
2023-10-31 23:05:00,SystemResetWarning,0835.1,5.00,000.00,025.7,024.8,000.0,033.9,027.1,10.6,0004.6,0012.08,0007.39,0007.00
2023-10-31 23:06:00,SystemResetWarning,0835.1,4.99,000.00,025.7,024.8,000.0,033.9,027.1,10.5,0004.0,0012.03,0007.43,0007.04
2023-10-31 23:07:00,SystemResetWarning,0835.0,4.99,000.00,025.7,024.8,000.0,033.9,027.1,10.5,0004.1,0011.49,0007.45,0007.07
2023-10-31 23:08:00,SystemResetWarning,0835.0,5.00,000.00,025.8,024.8,000.0,033.9,027.2,10.4,0004.5,0011.65,0007.50,0007.09
2023-10-31 23:09:00,SystemResetWarning,0835.0,5.01,000.00,025.8,024.8,000.0,034.0,027.2,10.4,0005.3,0011.71,0007.52,0007.12
2023-10-31 23:10:00,SystemResetWarning,0835.0,5.01,000.00,025.8,024.9,000.0,034.0,027.2,10.5,0003.8,0011.86,0007.58,0007.17
2023-10-31 23:11:00,SystemResetWarning,0835.0,4.99,000.00,025.8,024.9,000.0,034.0,027.2,10.4,0005.4,0011.46,0007.62,0007.21
2023-10-31 23:12:00,SystemResetWarning,0834.9,4.99,000.00,025.8,024.9,000.0,034.0,027.2,10.3,0004.8,0011.11,0007.67,0007.25
2023-10-31 23:13:00,SystemResetWarning,0835.0,4.99,000.00,025.8,024.9,000.0,034.0,027.2,10.3,0004.0,0011.30,0007.75,0007.30
2023-10-31 23:14:00,SystemResetWarning,0835.0,5.00,000.00,025.8,024.9,000.0,034.0,027.3,10.4,0002.4,0011.40,0007.81,0007.34
2023-10-31 23:15:00,SystemResetWarning,0835.0,5.01,000.00,025.8,024.9,000.0,034.0,027.2,10.6,0001.1,0011.34,0007.85,0007.36
2023-10-31 23:16:00,SystemResetWarning,0835.0,5.00,000.00,025.9,024.9,000.0,034.0,027.2,11.0,0000.3,0011.39,0007.90,0007.39
2023-10-31 23:17:00,SystemResetWarning,0835.0,5.00,000.00,025.9,024.9,000.0,034.1,027.3,10.8,0000.5,0011.66,0007.90,0007.40
2023-10-31 23:18:00,SystemResetWarning,0835.1,5.01,000.00,025.9,024.9,000.0,034.1,027.3,10.9,0001.6,0011.67,0007.94,0007.42
2023-10-31 23:19:00,SystemResetWarning,0835.1,5.00,000.00,025.9,024.9,000.0,034.1,027.3,11.0,0002.5,0011.57,0007.96,0007.46
2023-10-31 23:20:00,SystemResetWarning,0835.1,4.99,000.00,025.9,024.9,000.0,034.1,027.3,10.9,0002.8,0011.52,0007.99,0007.49
2023-10-31 23:21:00,SystemResetWarning,0835.1,4.99,000.00,025.9,024.9,000.0,034.1,027.3,10.8,0002.1,0011.48,0008.01,0007.52
2023-10-31 23:22:00,SystemResetWarning,0835.1,5.01,000.00,025.9,025.0,000.0,034.1,027.3,10.7,0002.8,0011.34,0008.00,0007.54
2023-10-31 23:23:00,SystemResetWarning,0835.0,5.00,000.00,025.9,025.0,000.0,034.1,027.3,10.7,0003.0,0011.22,0007.98,0007.55
2023-10-31 23:24:00,SystemResetWarning,0835.0,5.00,000.00,026.0,025.0,000.0,034.1,027.3,10.8,0003.9,0011.05,0007.95,0007.57
2023-10-31 23:25:00,SystemResetWarning,0835.0,4.99,000.00,026.0,025.0,000.0,034.2,027.3,10.9,0003.9,0011.10,0007.95,0007.60
2023-10-31 23:26:00,SystemResetWarning,0835.0,4.99,000.00,026.0,025.0,000.0,034.2,027.4,10.9,0004.1,0011.23,0007.95,0007.61
2023-10-31 23:27:00,SystemResetWarning,0835.1,5.03,000.00,026.0,025.0,000.0,034.2,027.4,10.9,0005.0,0011.16,0007.91,0007.61
2023-10-31 23:28:00,SystemResetWarning,0835.1,4.99,000.00,026.0,025.1,000.0,034.2,027.4,10.9,0005.0,0010.87,0007.90,0007.62
2023-10-31 23:29:00,SystemResetWarning,0835.0,4.99,000.00,026.0,025.1,000.0,034.2,027.4,10.8,0004.7,0010.83,0007.89,0007.62
2023-10-31 23:30:00,SystemResetWarning,0835.0,5.00,000.00,026.0,025.1,000.0,034.2,027.4,10.7,0004.3,0010.84,0007.88,0007.62
2023-10-31 23:31:00,SystemResetWarning,0835.0,5.01,000.00,026.0,025.1,000.0,034.2,027.4,10.7,0004.2,0010.81,0007.88,0007.63
2023-10-31 23:32:00,SystemResetWarning,0835.0,5.01,000.00,026.0,025.1,000.0,034.2,027.4,10.8,0004.1,0010.79,0007.88,0007.62
2023-10-31 23:33:00,SystemResetWarning,0835.0,5.00,000.00,026.1,025.1,000.0,034.2,027.5,10.6,0004.2,0010.88,0007.92,0007.63
2023-10-31 23:34:00,SystemResetWarning,0835.0,5.00,000.00,026.1,025.1,000.0,034.3,027.5,10.6,0004.4,0010.95,0007.93,0007.63
2023-10-31 23:35:00,SystemResetWarning,0835.0,4.98,000.00,026.1,025.1,000.0,034.3,027.5,10.6,0003.9,0010.97,0007.94,0007.63
2023-10-31 23:36:00,SystemResetWarning,0835.0,5.00,000.00,026.1,025.1,000.0,034.3,027.5,10.6,0004.3,0010.87,0007.93,0007.62
2023-10-31 23:37:00,SystemResetWarning,0835.0,5.00,000.00,026.1,025.1,000.0,034.3,027.5,10.6,0004.7,0010.66,0007.94,0007.62
2023-10-31 23:38:00,SystemResetWarning,0835.0,5.00,000.00,026.1,025.2,000.0,034.3,027.5,10.6,0004.6,0010.66,0007.95,0007.62
2023-10-31 23:39:00,SystemResetWarning,0835.0,5.00,000.00,026.1,025.2,000.0,034.3,027.5,10.6,0004.3,0010.70,0007.97,0007.63
2023-10-31 23:40:00,SystemResetWarning,0834.9,5.01,000.00,026.1,025.2,000.0,034.3,027.5,10.5,0004.4,0010.77,0008.01,0007.64
2023-10-31 23:41:00,SystemResetWarning,0835.0,5.01,000.00,026.2,025.2,000.0,034.3,027.6,10.5,0004.4,0011.33,0008.03,0007.64
2023-10-31 23:42:00,SystemResetWarning,0835.0,5.00,000.00,026.2,025.2,000.0,034.4,027.6,10.5,0003.5,0011.34,0008.02,0007.64
2023-10-31 23:43:00,SystemResetWarning,0834.9,4.99,000.00,026.2,025.2,000.0,034.4,027.6,10.5,0003.1,0011.34,0008.01,0007.64
2023-10-31 23:44:00,SystemResetWarning,0834.9,5.00,000.00,026.2,025.2,000.0,034.4,027.6,10.5,0002.7,0011.35,0008.01,0007.63
2023-10-31 23:45:00,SystemResetWarning,0835.1,5.00,000.00,026.2,025.2,000.0,034.4,027.6,10.5,0002.5,0011.39,0008.02,0007.64
2023-10-31 23:46:00,SystemResetWarning,0835.3,5.00,000.00,026.2,025.2,000.0,034.4,027.6,10.4,0002.3,0011.40,0008.02,0007.63
2023-10-31 23:47:00,SystemResetWarning,0835.4,5.00,000.00,026.2,025.2,000.0,034.4,027.6,10.4,0002.0,0011.42,0008.03,0007.63
2023-10-31 23:48:00,SystemResetWarning,0835.3,5.02,000.00,026.2,025.2,000.0,034.4,027.6,10.4,0001.3,0011.46,0008.00,0007.60
2023-10-31 23:49:00,SystemResetWarning,0835.1,4.98,000.00,026.2,025.2,000.0,034.4,027.6,10.4,0001.0,0011.51,0008.02,0007.60
2023-10-31 23:50:00,SystemResetWarning,0834.9,4.99,000.00,026.2,025.2,000.0,034.4,027.6,10.4,0000.7,0011.52,0008.03,0007.60
2023-10-31 23:51:00,SystemResetWarning,0834.9,5.01,000.00,026.2,025.3,000.0,034.4,027.6,10.4,0001.2,0011.53,0008.03,0007.61
2023-10-31 23:52:00,SystemResetWarning,0834.9,5.01,000.00,026.2,025.3,000.0,034.5,027.6,10.4,0001.6,0011.11,0008.06,0007.65
2023-10-31 23:53:00,SystemResetWarning,0835.3,4.99,000.00,026.3,025.3,000.0,034.5,027.6,10.4,0002.0,0011.12,0008.08,0007.68
2023-10-31 23:54:00,SystemResetWarning,0835.0,4.99,000.00,026.3,025.2,000.0,034.5,027.6,10.5,0002.5,0011.55,0008.12,0007.73
2023-10-31 23:55:00,SystemResetWarning,0834.8,5.01,000.00,026.3,025.2,000.0,034.5,027.6,10.4,0002.7,0012.10,0008.18,0007.78
2023-10-31 23:56:00,SystemResetWarning,0834.8,5.02,000.00,026.3,025.2,000.0,034.5,027.6,10.6,0002.8,0012.12,0008.20,0007.82
2023-10-31 23:57:00,SystemResetWarning,0834.7,4.98,000.00,026.3,025.2,000.0,034.5,027.6,10.6,0002.4,0012.27,0008.28,0007.88
2023-10-31 23:58:00,SystemResetWarning,0834.8,5.01,000.00,026.3,025.2,000.0,034.5,027.6,10.7,0002.2,0012.42,0008.39,0007.95
2023-10-31 23:59:00,SystemResetWarning,0834.8,5.00,000.00,026.3,025.2,000.0,034.5,027.6,10.7,0002.9,0012.66,0008.47,0008.02
